Location: Unspecified
(35.6961°N, 0.0000°E)
Time: 21:56:10
(UTC+00:00)

Explorer 7 - Visible Passes

Search period start: 20 May 2019 00:00
Search period end: 30 May 2019 00:00
Orbit: 485 x 680 km, 50.3° (Epoch: 20 May)

Date Brightness Start Highest point End Pass type
(mag) Time Alt. Az. Time Alt. Az. Time Alt. Az.
20 May 10.2 00:17:43 10° NNW 00:19:31 12° N 00:21:17 10° NNE visible
20 May 9.6 01:58:29 10° NNW 02:01:33 18° NNE 02:04:30 10° ENE visible
20 May 6.9 03:38:30 10° NW 03:42:43 77° NE 03:46:40 10° SE visible
20 May 8.0 20:56:46 10° WSW 21:01:31 51° NW 21:06:05 10° NE visible
20 May 9.9 22:39:53 10° WNW 22:42:56 17° NNW 22:45:55 10° NNE visible
21 May 10.2 00:23:08 10° NNW 00:25:04 12° N 00:26:56 10° NNE visible
21 May 9.2 02:03:20 10° NNW 02:06:56 24° NNE 02:10:20 10° E visible
21 May 6.7 03:43:38 10° WNW 03:47:47 60° SW 03:51:39 10° SE visible
21 May 8.8 21:02:17 10° W 21:06:44 35° NNW 21:11:02 10° NE visible
21 May 10.1 22:45:52 10° NW 22:48:25 14° NNW 22:50:54 10° NNE visible
22 May 10.0 00:28:13 10° NNW 00:30:35 14° N 00:32:52 10° NE visible
22 May 8.4 02:08:13 10° NW 02:12:14 35° NNE 02:16:00 10° E visible
22 May 7.4 03:48:58 10° WNW 03:52:44 33° SW 03:56:18 10° SSE visible
22 May 7.2 19:26:08 10° SW 19:31:02 76° SE 19:35:49 10° NE visible
22 May 9.4 21:07:59 10° W 21:12:02 26° NNW 21:15:57 10° NNE visible
22 May 10.2 22:51:46 10° NNW 22:53:56 13° N 22:56:03 10° NNE visible
23 May 9.8 00:33:10 10° NNW 00:36:04 17° NNE 00:38:51 10° ENE visible
23 May 7.5 02:13:10 10° NW 02:17:28 55° NE 02:21:27 10° ESE visible
23 May 8.1 03:54:41 10° W 03:57:37 19° SW 04:00:26 10° S visible
23 May 7.6 19:31:13 10° WSW 19:36:07 69° NW 19:40:54 10° NE visible
23 May 9.8 21:13:51 10° WNW 21:17:24 20° NNW 21:20:51 10° NNE visible
23 May 10.1 22:57:23 10° NNW 22:59:29 13° N 23:01:30 10° NNE visible
24 May 9.4 00:38:03 10° NNW 00:41:30 21° NNE 00:43:23 16° NE visible
24 May 8.9 02:18:13 10° NW 02:19:27 18° NW 02:19:27 18° NW visible
24 May 8.5 19:36:35 10° WSW 19:41:17 45° NNW 19:45:54 10° NE visible
24 May 10.0 21:19:48 10° NW 21:22:50 16° NNW 21:25:48 10° NNE visible
24 May 10.0 23:02:42 10° NNW 23:05:01 13° N 23:07:15 10° NE visible
25 May 9.0 00:42:56 10° NNW 00:45:49 26° N 00:45:49 26° N visible
25 May 9.2 19:42:09 10° W 19:46:32 32° NNW 19:50:49 10° NE visible
25 May 10.0 21:25:45 10° NW 21:28:20 14° N 21:30:52 10° NNE visible
25 May 9.9 23:07:47 10° NNW 23:10:31 15° NNE 23:13:11 10° NE visible
26 May 9.3 00:47:51 10° NW 00:49:26 20° NNW 00:49:26 20° NNW visible
26 May 9.6 19:47:54 10° WNW 19:51:52 24° NNW 19:55:44 10° NNE visible
26 May 10.0 21:31:33 10° NNW 21:33:51 13° N 21:36:08 10° NNE visible
26 May 9.5 23:12:44 10° NNW 23:16:00 19° NNE 23:17:08 17° NE visible
27 May 9.6 00:52:50 10° NW 00:53:24 13° NW 00:53:24 13° NW visible
27 May 9.9 19:53:47 10° WNW 19:57:16 19° NNW 20:00:40 10° NNE visible
27 May 9.9 21:37:04 10° NNW 21:39:24 13° N 21:41:42 10° NNE visible
27 May 9.1 23:17:38 10° NNW 23:21:16 24° NNE 23:21:16 24° NNE visible
28 May 9.9 19:59:44 10° NW 20:02:43 16° NNW 20:05:40 10° NNE visible
28 May 9.8 21:42:18 10° NNW 21:44:57 15° N 21:47:30 10° NE visible
28 May 8.9 23:22:32 10° NW 23:25:31 28° N 23:25:31 28° N visible
29 May 9.9 20:05:36 10° NW 20:08:14 14° N 20:10:49 10° NNE visible
29 May 9.6 21:47:21 10° NNW 21:50:26 17° NNE 21:53:26 10° NE visible
29 May 9.0 23:27:28 10° NW 23:29:51 27° NNW 23:29:51 27° NNW visible
